Regional Weather Roundup
Issued by NWS

Home | Current Version | Previous Version | Text Only | Print | Product List | Glossary Off
Versions: 1 2 3 4 5 6 7 8 9 10 11 12 13 14 15 16 17 18 19 20 21 22 23 24 25 26 27 28 29 30 31 32 33 34 35 36 37 38 39 40 41 42 43 44 45 46 47 48 49 50

000
ASUS43 KLOT 180710
RWRIL

ILLINOIS REGIONAL WEATHER ROUNDUP
NATIONAL WEATHER SERVICE CHICAGO/ROMEOVILLE IL
200 AM CDT FRI APR 18 2014

NOTE: "FAIR" INDICATES FEW OR NO CLOUDS BELOW 12,000 FEET WITH NO
SIGNIFICANT WEATHER AND/OR OBSTRUCTIONS TO VISIBILITY.

* THESE STATIONS ARE NOT UNDER NWS QUALITY CONTROL. THEY ALSO MAY NOT
  REPORT WEATHER SUCH AS PRECIPITATION OR FOG.

ILZ001-002-007-009-015-016-024-180800-
NORTHWEST ILLINOIS

CITY           SKY/WX    TMP DP  RH WIND       PRES   REMARKS
MOLINE         CLEAR     39  32  76 CALM      30.29S
STERLING*      CLEAR     39  34  81 N8        30.28S WCI  34
SAVANNA*       CLEAR     38  33  80 N6        30.29S WCI  34
$$

ILZ003-004-008-010-011-017-018-180800-
NORTH CENTRAL ILLINOIS

CITY           SKY/WX    TMP DP  RH WIND       PRES   REMARKS
ROCKFORD       PTCLDY    40  33  76 N10       30.30S
FREEPORT*      CLEAR     39  35  87 N6        30.31S WCI  34
ROCHELLE*      PTCLDY    38  35  87 N8        30.27F WCI  32
DE KALB*       MOCLDY    40  35  84 N6        30.27S
PERU*          MOCLDY    42  35  78 CALM      30.27F
$$

ILZ005-006-012>014-019>023-180800-
NORTHEAST ILLINOIS

CITY           SKY/WX    TMP DP  RH WIND       PRES   REMARKS
CHICAGO-OHARE  CLOUDY    46  36  68 SE3       30.25F
CHICAGO-MIDWAY CLOUDY    49  39  68 CALM      30.26S
AURORA         CLOUDY    42  36  79 W7        30.26F
LANSING*       CLOUDY    48  42  79 W3        30.25F
WAUKEGAN       CLOUDY    42  36  79 N5        30.27R
DUPAGE AIRPORT CLOUDY    45  37  73 W3        30.25F
KANKAKEE*      DRIZZLE   49  41  75 NW10      30.25F
WHEELING       CLOUDY    45  37  73 CALM      30.26F
MORRIS*        CLOUDY    46  36  67 W6        30.26S
ROMEOVILLE*    CLOUDY    46  38  74 W5        30.26S
NORTHERLY ISL    N/A     46  38  73 S1          N/A
$$

LMZ740>746-180800-
SOUTHERN LAKE MICHIGAN

STATION/POSITION SKY/WX   TEMP    WIND        PRES    VSBY  WAVE
                          AIR SEA DIR/SP/G                  HT/PER
                          (F)     (DEG/KT/KT) (MB)    (MI)  (FT/S)
WAUKEGAN HARBOR            44     200/  1/  4 1026.1R
HARRISON CRIB              45     180/  6/  7   N/A
BURNHAM HARBOR             46     160/  2/  3   N/A
CALUMET HARBOR             46     110/  3/  3 1025.2S
MICHIGAN CITY              46     100/  3/  5   N/A
$$

ILZ025>027-034>036-040-047-049-050-058-095>099-180800-
WEST-CENTRAL ILLINOIS

CITY           SKY/WX    TMP DP  RH WIND       PRES   REMARKS
QUINCY         PTCLDY    42  36  79 CALM      30.28F
GALESBURG*     CLEAR     32  32  99 CALM      30.28S
MACOMB*        CLEAR     40  34  80 NW3       30.30F
JACKSONVILLE*  CLOUDY    46  38  74 N3        30.28S
PITTSFIELD*    CLOUDY    46  39  76 NW3       30.29R
$$

ILZ028>032-037-038-041>044-048-051>054-059>061-180800-
CENTRAL ILLINOIS

CITY           SKY/WX    TMP DP  RH WIND       PRES   REMARKS
PONTIAC        DRIZZLE   48  43  81 NW6       30.26F
BLOOMINGTON    CLOUDY    46  36  68 NW7       30.27F
DECATUR        CLOUDY    49  39  68 N6        30.27S
PEORIA         CLOUDY    47  36  65 CALM      30.28F
LACON*         MOCLDY    44  37  76 CALM      30.27F
LINCOLN*       CLOUDY    48  39  69 N3        30.27S
SPRINGFIELD    CLOUDY    49  37  63 CALM      30.27F
TAYLORVILLE    CLOUDY    45  39  81 N6        30.27S
$$

ILZ033-039-045-046-055>057-062-063-180800-
EAST-CENTRAL ILLINOIS

CITY           SKY/WX    TMP DP  RH WIND       PRES   REMARKS
CHAMPAIGN      CLOUDY    48  40  73 N8        30.26F
RANTOUL*       CLOUDY    51  39  64 CALM      30.27S
MATTOON        MOCLDY    46  40  79 NW6       30.25S
PARIS*         MOCLDY    45  39  81 CALM      30.26S
$$

ILZ079-100>102-180800-
SOUTHWEST ILLINOIS

CITY           SKY/WX    TMP DP  RH WIND       PRES   REMARKS
ALTON          MOCLDY    50  38  62 CALM      30.26F
BELLEVILLE     MOCLDY    53  42  68 N6        30.25S
CAHOKIA*       MOCLDY    50  41  71 N6        30.26F
SPARTA*        CLOUDY    52  43  71 N5        30.26S
$$

ILZ064>066-069>071-074>076-080>082-084>086-088>090-092>094-180800-
SOUTH-CENTRAL ILLINOIS

CITY           SKY/WX    TMP DP  RH WIND       PRES   REMARKS
CARBONDALE     PTCLDY    45  41  86 CALM      30.25R
CAIRO*         CLEAR     48  44  85 CALM      30.24S
MARION         CLEAR     45  41  87 CALM      30.26R
MT. VERNON     PTCLDY    39  30  70 CALM      30.26S
CENTRALIA*       N/A     49  40  70 CALM      30.25S
SALEM*         MOCLDY    48  42  79 N5        30.26S
METROPOLIS*    MOCLDY    48  41  77 CALM      30.24R
$$

ILZ067-068-072-073-078-083-087-091-180800-
SOUTHEAST ILLINOIS

CITY           SKY/WX    TMP DP  RH WIND       PRES   REMARKS
FAIRFIELD*     CLEAR     46  43  87 CALM      30.25R
HARRISBURG*    CLEAR     44  41  89 CALM      30.26S
ROBINSON*      PTCLDY    44  43  94 N3        30.26S
CARMI*         CLEAR     47  44  91 CALM      30.24F
$$

ABBREVIATIONS USED IN REMARKS
   TC - TEMPERATURE IN CELSIUS
  WCI - WIND CHILL INDEX
   HX - HEAT INDEX
  VSB - VISIBILITY
$$




USA.gov is the U.S. government's official web portal to all federal, state and local government web resources and services.